#datint,netname,site,siteID,timestamp,IntT,BattV,AirT2,AirT,AirT_Avg,AirT_Max,AirT_Min,RH_Avg,RH_Max,RH_Min,EA_Avg,Td_Avg,Td_Max,Td_Min,WindS_Smp,WindS_Avg,WindD_Avg,WindD_SD,WindS_Max,ETo,ETr,SoilT4,SoilT8,SoilVWC8,SolarW_Avg,wetstate_Avg,wetT_Avg,Precip_accum,Precip_WPG,Precip_TB
15min,AgWx,beryljct,423,02SEP2020:00:00:00,56.5,12.9,53.8,55.2,57.2,58.7,55.2,43,51,38,0.756,34.7,37.4,33.1,0,0.5,295,1.3,1.8,-0.00029,-0.00043,62.3,65.7,21,0,0,48.9,4.34,0.01,0.00
15min,AgWx,beryljct,423,02SEP2020:00:15:00,55.6,12.89,56.5,55.8,54.6,56.0,53.3,49,56,43,0.651,36.0,38.2,33.6,0.789,0.1,266,1.1,0.8,-0.00037,-0.00058,62.0,65.7,21,0,0,46.7,4.34,0.00,0.00
15min,AgWx,beryljct,423,02SEP2020:00:30:00,54.6,12.89,58.9,56.1,53.1,56.8,49.3,53,68,40,0.703,36.1,39.1,32.4,2.521,2.1,232,18,2.9,-0.00007,-0.00007,61.8,65.6,21,0,0,46.7,4.34,0.00,0.00
15min,AgWx,beryljct,423,02SEP2020:00:45:00,54.0,12.88,53.6,54.5,55.3,57.6,52.4,50,57,40,0.705,36.8,38.7,33.0,0.833,1.6,264,16,2.9,-0.00013,-0.00015,61.5,65.6,21,0,0,47.8,4.34,0.00,0.00
15min,AgWx,beryljct,423,02SEP2020:01:00:00,53.6,12.88,58.4,56.8,56.8,58.6,54.2,42,50,38,0.660,34.1,35.8,32.7,0.965,0.4,233,4.3,1.5,-0.00032,-0.00048,61.3,65.5,21,0,0,47.6,4.35,0.00,0.00
15min,AgWx,beryljct,423,02SEP2020:01:15:00,53.5,12.86,57.0,57.3,57.4,57.8,56.9,39,42,38,0.625,33.0,34.2,32.3,0.767,0.3,25,35,1.4,-0.00035,-0.00053,61.1,65.4,21,0,0,48.5,4.35,0.00,0.00
15min,AgWx,beryljct,423,02SEP2020:01:30:00,53.8,12.85,57.9,58.3,57.9,58.5,57.1,37,39,36,0.597,32.0,33.4,31.3,2.433,2.2,311,23,3.1,-0.00002,0.00002,60.8,65.4,21,0,0,50.0,4.34,0.00,0.00
15min,AgWx,beryljct,423,02SEP2020:01:45:00,53.9,12.86,50.7,53.2,55.4,58.2,51.8,40,46,36,0.614,31.4,32.4,30.9,3.047,3.7,336,12,4.8,0.00015,0.00025,60.6,65.3,21,0,0,49.8,4.35,0.00,0.00
15min,AgWx,beryljct,423,02SEP2020:02:00:00,53.2,12.84,50.0,50.0,50.9,52.8,49.3,48,51,45,0.620,32.0,33.3,30.9,4.56,4.3,312,7.7,5.0,0.00014,0.00021,60.4,65.3,21,0,0,45.3,4.35,0.00,0.00
15min,AgWx,beryljct,423,02SEP2020:02:15:00,52.1,12.82,51.2,49.9,49.2,50.8,47.7,54,60,48,0.632,33.1,34.4,31.6,2.302,2.5,301,0.4,4.8,-0.00003,-0.00001,60.2,65.2,21,0,0,42.7,4.35,0.00,0.00
15min,AgWx,beryljct,423,02SEP2020:02:30:00,51.3,12.83,52.1,52.1,51.3,52.3,50.0,49,52,45,0.618,32.6,33.6,31.6,2.521,3.0,301,1.6,3.9,0.00003,0.00007,60.0,65.1,21,0,0,43.4,4.35,0.00,0.00
15min,AgWx,beryljct,423,02SEP2020:02:45:00,50.8,12.8,48.1,47.6,50.2,52.5,47.6,53,65,45,0.632,33.8,36.6,30.2,2.74,2.5,225,57,4.8,-0.00003,-0.00001,59.8,65.0,21,0,0,43.6,4.35,0.00,0.00
15min,AgWx,beryljct,423,02SEP2020:03:00:00,50.3,12.81,49.9,50.4,50.7,53.4,47.6,49,56,39,0.621,32.0,33.7,28.9,0.57,1.4,156,38,3.4,-0.00014,-0.00018,59.6,64.9,21,0,0,43.5,4.35,0.00,0.00
15min,AgWx,beryljct,423,02SEP2020:03:15:00,49.9,12.8,45.7,45.5,48.5,50.9,45.5,54,66,48,0.565,32.5,36.3,30.1,3.201,2.9,197,14,4.8,-0.00000,0.00003,59.4,64.9,21,0,0,42.4,4.35,0.00,0.00
15min,AgWx,beryljct,423,02SEP2020:03:30:00,49.0,12.79,45.8,45.6,44.6,47.4,43.0,64,73,52,0.670,33.1,35.1,29.1,0,1.8,202,3.6,3.6,-0.00012,-0.00015,59.2,64.8,21,0,0,38.6,4.35,0.00,0.00
15min,AgWx,beryljct,423,02SEP2020:03:45:00,48.0,12.78,47.4,47.0,46.8,48.7,45.6,66,72,58,0.707,36.0,37.8,34.4,1.271,0.2,207,0.0,1.3,-0.00030,-0.00047,59.0,64.7,21,0,0,38.2,4.35,0.00,0.00
15min,AgWx,beryljct,423,02SEP2020:04:00:00,47.5,12.77,49.9,48.6,47.3,48.6,46.5,64,74,51,0.589,35.6,39.7,31.1,4.077,1.1,239,43,4.1,-0.00019,-0.00027,58.8,64.6,21,0,0,39.6,4.35,0.00,0.00
15min,AgWx,beryljct,423,02SEP2020:04:15:00,47.1,12.76,43.0,41.7,43.7,49.0,41.4,57,63,48,0.462,29.6,32.2,25.2,2.872,3.8,319,5.2,5.0,0.00004,0.00008,58.6,64.5,21,0,0,38.0,4.35,0.00,0.00
15min,AgWx,beryljct,423,02SEP2020:04:30:00,46.4,12.75,43.1,43.6,44.7,47.0,41.9,48,55,45,0.453,26.1,28.9,24.2,3.157,3.5,316,9.3,4.0,0.00006,0.00011,58.4,64.4,21,0,0,38.3,4.35,0.00,0.00
15min,AgWx,beryljct,423,02SEP2020:04:45:00,45.8,12.74,47.7,45.2,42.0,45.2,41.1,55,63,47,0.509,26.7,29.6,24.5,2.85,1.3,336,33,3.4,-0.00014,-0.00019,58.2,64.4,21,0,0,36.1,4.35,0.00,0.00
15min,AgWx,beryljct,423,02SEP2020:05:00:00,45.3,12.72,44.4,45.1,44.6,45.6,43.5,45,53,42,0.434,24.7,28.6,23.5,2.74,2.7,327,24,4.0,0.00001,0.00005,58.1,64.3,21,0,0,38.3,4.35,0.00,0.00
15min,AgWx,beryljct,423,02SEP2020:05:15:00,45.4,12.72,46.3,46.3,47.4,48.8,44.4,42,48,40,0.460,25.6,27.3,23.9,4.056,3.1,328,9.1,4.1,0.00006,0.00011,57.8,64.2,21,0,0,40.9,4.35,0.00,0.00
15min,AgWx,beryljct,423,02SEP2020:05:30:00,45.4,12.71,43.1,43.3,44.0,46.3,43.0,57,64,43,0.596,29.6,31.6,25.1,5.612,1.1,347,51,5.6,-0.00018,-0.00024,57.7,64.1,21,0,0,37.8,4.35,0.00,0.00
15min,AgWx,beryljct,423,02SEP2020:05:45:00,45.0,12.71,43.8,43.6,43.5,44.3,42.8,65,69,59,0.599,32.5,33.8,30.8,3.135,2.5,171,7.4,5.6,-0.00007,-0.00007,57.4,64.0,21,0,0,36.3,4.35,0.00,0.00
15min,AgWx,beryljct,423,02SEP2020:06:00:00,44.7,12.7,44.0,43.6,43.5,44.9,42.2,60,65,54,0.579,30.4,32.3,29.1,2.959,4.0,168,15,5.9,0.00003,0.00007,57.3,63.9,21,0,0,36.8,4.35,0.00,0.00
15min,AgWx,beryljct,423,02SEP2020:06:15:00,44.5,12.7,46.8,45.5,43.9,45.5,42.6,58,62,54,0.587,30.3,31.6,29.3,2.806,3.8,176,33,5.1,0.00003,0.00006,57.1,63.8,21,0,0,37.2,4.35,0.00,0.00
15min,AgWx,beryljct,423,02SEP2020:06:30:00,44.7,12.7,46.8,46.5,47.3,48.3,45.7,52,56,50,0.560,30.5,31.3,29.6,2.609,2.8,179,14,5.2,0.00031,0.00053,56.9,63.7,21,0,0,39.5,4.35,0.00,0.00
15min,AgWx,beryljct,423,02SEP2020:06:45:00,44.8,12.67,44.1,43.9,45.0,47.4,43.6,57,63,50,0.605,30.7,32.2,29.1,2.565,2.7,195,10,3.3,0.00025,0.00044,56.7,63.6,21,0,0,38.3,4.35,0.00,0.00
15min,AgWx,beryljct,423,02SEP2020:07:00:00,44.7,12.68,46.5,45.7,46.3,49.5,43.9,55,62,46,0.631,30.9,32.8,29.5,0,1.8,169,20,4.1,0.00020,0.00035,56.6,63.6,21,1,0,38.6,4.35,0.00,0.00
15min,AgWx,beryljct,423,02SEP2020:07:15:00,44.8,12.67,44.3,45.7,46.6,47.6,45.7,54,60,49,0.620,31.0,32.8,29.6,1.622,0.9,162,15,2.3,0.00013,0.00021,56.4,63.5,21,6,0,39.4,4.35,0.00,0.00
15min,AgWx,beryljct,423,02SEP2020:07:30:00,45.0,12.71,41.9,42.0,44.4,47.1,41.9,64,76,52,0.636,32.8,35.1,30.2,1.491,2.3,144,26,4.3,0.00040,0.00056,56.2,63.4,21,43,0,48.0,4.35,0.00,0.00
15min,AgWx,beryljct,423,02SEP2020:07:45:00,45.2,12.74,44.2,43.7,42.1,43.7,41.3,66,78,53,0.514,31.5,35.2,27.4,3.157,1.9,176,7.6,3.7,0.00049,0.00062,56.1,63.2,21,81,0,57.1,4.35,0.00,0.00
15min,AgWx,beryljct,423,02SEP2020:08:00:00,46.0,12.69,45.9,44.9,44.2,45.0,43.1,64,74,51,0.683,32.5,35.5,27.8,1.03,1.2,231,40,3.3,0.00063,0.00075,56.0,63.2,21,121,0,63.1,4.35,0.00,0.00
15min,AgWx,beryljct,423,02SEP2020:08:15:00,47.6,12.75,49.9,49.3,47.1,49.3,45.0,57,67,51,0.610,32.5,34.8,30.6,2.85,2.5,344,11,3.3,0.00095,0.00118,55.8,63.1,21,165,0,64.9,4.34,0.00,0.00
15min,AgWx,beryljct,423,02SEP2020:08:30:00,50.1,12.85,53.7,53.3,51.5,53.3,49.4,47,51,42,0.598,31.9,34.0,30.2,1.6,2.1,324,6.5,3.2,0.00126,0.00154,55.7,63.0,21,213,0,74.5,4.34,0.00,0.00
15min,AgWx,beryljct,423,02SEP2020:08:45:00,53.2,13.03,56.9,56.5,55.3,56.5,53.3,38,46,33,0.513,30.1,32.9,27.7,1.666,1.6,340,10,3.0,0.00157,0.00186,55.6,62.9,21,263,0,82.5,4.34,0.00,0.00
15min,AgWx,beryljct,423,02SEP2020:09:00:00,56.4,13.32,57.7,57.6,57.0,57.6,56.5,34,35,33,0.558,28.6,29.9,27.7,2.17,2.0,353,10,3.1,0.00194,0.00232,55.6,62.8,21,315,0,84.4,4.34,0.00,0.00
15min,AgWx,beryljct,423,02SEP2020:09:15:00,59.4,13.69,59.2,59.1,58.3,59.2,57.6,35,41,32,0.693,30.8,35.2,28.2,2.368,2.1,10,26,3.6,0.00225,0.00266,55.6,62.7,21,367,0,87.5,4.33,0.00,0.00
15min,AgWx,beryljct,423,02SEP2020:09:30:00,62.1,14.25,61.8,61.1,59.9,61.2,59.1,37,42,33,0.623,33.4,36.8,31.1,1.118,2.0,17,27,3.3,0.00257,0.00299,55.6,62.6,21,419,0,90.9,4.32,0.00,0.00
15min,AgWx,beryljct,423,02SEP2020:09:45:00,64.9,14.21,62.8,62.9,62.0,63.0,60.9,35,44,32,0.733,34.2,40.5,31.8,5.524,1.9,17,20,5.6,0.00292,0.00336,55.7,62.5,21,469,0,96.7,4.32,0.00,0.00
15min,AgWx,beryljct,423,02SEP2020:10:00:00,67.1,14.14,63.3,63.6,63.5,64.3,62.9,36,40,31,0.705,35.8,39.1,33.0,4.669,4.3,45,22,7.2,0.00349,0.00425,55.9,62.4,21,518,0,90.9,4.32,0.00,0.00
15min,AgWx,beryljct,423,02SEP2020:10:15:00,68.5,14.16,64.7,64.4,64.0,64.4,63.6,38,45,35,0.855,38.2,42.5,35.1,4.911,5.5,71,12,7.7,0.00384,0.00472,56.1,62.3,21,566,0,89.0,4.32,0.00,0.00
15min,AgWx,beryljct,423,02SEP2020:10:30:00,69.8,14.12,66.5,65.9,65.3,66.0,64.4,39,44,32,0.800,39.4,43.5,34.9,3.442,4.0,79,19,7.5,0.00403,0.00479,56.5,62.3,21,609,0,93.3,4.31,0.00,0.00
15min,AgWx,beryljct,423,02SEP2020:10:45:00,71.7,14.06,67.5,67.9,66.8,67.9,65.9,37,43,33,0.885,40.0,43.8,36.0,1.929,2.3,115,22,4.2,0.00415,0.00473,56.9,62.2,20,634,0,105.7,4.31,0.00,0.00
15min,AgWx,beryljct,423,02SEP2020:11:00:00,73.5,14.01,69.1,69.2,68.6,69.3,67.7,37,42,31,0.836,41.1,45.0,37.0,5.744,4.3,114,31,7.9,0.00472,0.00558,57.3,62.1,20,691,0,103.5,4.31,0.00,0.00
15min,AgWx,beryljct,423,02SEP2020:11:15:00,74.6,14.1,70.4,70.5,69.9,70.5,69.2,35,41,32,0.948,41.4,45.4,38.5,2.302,4.4,86,18,6.8,0.00504,0.00596,57.9,62.1,20,728,0,98.9,4.31,0.00,0.00
15min,AgWx,beryljct,423,02SEP2020:11:30:00,75.9,14.04,72.9,72.6,71.9,72.7,70.6,34,41,30,1.103,42.0,47.4,37.9,4.143,5.4,56,20,11.5,0.00544,0.00654,58.5,62.0,20,761,0,99.1,4.31,0.00,0.00
15min,AgWx,beryljct,423,02SEP2020:11:45:00,76.8,13.59,72.8,73.0,72.8,73.3,72.3,35,43,30,0.819,43.1,49.4,39.0,2.981,6.9,72,17,10.9,0.00578,0.00708,59.1,62.0,20,792,0,96.1,4.31,0.00,0.00
15min,AgWx,beryljct,423,02SEP2020:12:00:00,77.5,13.56,74.0,74.2,73.7,74.3,73.0,34,39,30,0.956,43.8,47.7,39.4,10.48,8.1,71,12,12.4,0.00608,0.00754,59.8,62.0,20,817,0,95.9,4.31,0.00,0.00
15min,AgWx,beryljct,423,02SEP2020:12:15:00,78.1,13.59,74.7,75.0,74.6,75.0,74.1,32,40,29,0.854,43.1,48.6,39.9,6.226,8.8,61,16,13.5,0.00631,0.00792,60.4,62.0,20,830,0,94.8,4.31,0.00,0.00
15min,AgWx,beryljct,423,02SEP2020:12:30:00,78.9,13.54,75.8,75.9,75.4,76.2,74.9,33,41,27,0.935,44.5,50.1,39.2,13.07,8.0,70,14,13.4,0.00647,0.00798,61.1,62.0,20,862,0,96.5,4.31,0.00,0.00
15min,AgWx,beryljct,423,02SEP2020:12:45:00,79.6,13.59,76.9,76.8,76.3,76.9,75.8,30,36,25,0.901,42.8,47.4,38.2,7.125,7.9,67,20,12.6,0.00667,0.00826,61.7,62.0,20,878,0,96.7,4.31,0.00,0.00
15min,AgWx,beryljct,423,02SEP2020:13:00:00,80.6,13.49,77.6,77.8,77.4,77.8,76.9,32,37,27,0.928,44.9,49.2,40.5,14.1,8.9,58,16,14.1,0.00686,0.00856,62.4,62.0,20,890,0,96.1,4.31,0.00,0.00
15min,AgWx,beryljct,423,02SEP2020:13:15:00,81.5,13.49,79.1,78.6,78.1,78.6,77.4,29,36,24,1.013,43.3,49.1,38.7,11.33,7.5,59,15,12.8,0.00690,0.00850,63.1,62.1,20,899,0,97.1,4.31,0.00,0.00
15min,AgWx,beryljct,423,02SEP2020:13:30:00,82.1,13.5,78.8,79.1,78.7,79.2,78.3,29,38,24,1.067,44.1,51.2,39.4,8.55,8.5,85,18,13.5,0.00706,0.00880,63.7,62.1,20,904,0,96.9,4.30,0.00,0.00
15min,AgWx,beryljct,423,02SEP2020:13:45:00,82.4,13.47,80.1,80.1,79.4,80.3,78.9,28,34,22,0.982,43.4,48.8,37.5,4.998,7.9,78,22,14.7,0.00708,0.00878,64.3,62.2,20,905,0,96.7,4.31,0.00,0.00
15min,AgWx,beryljct,423,02SEP2020:14:00:00,83.1,13.45,81.0,80.6,80.2,80.7,80.0,28,34,23,0.933,43.8,49.3,38.4,7.738,7.9,87,14,13.6,0.00712,0.00882,64.9,62.2,20,901,0,98.1,4.31,0.00,0.00
15min,AgWx,beryljct,423,02SEP2020:14:15:00,83.9,13.46,80.9,80.8,80.8,81.1,80.2,28,37,22,1.267,44.9,52.2,38.4,8.48,7.3,85,18,11.6,0.00705,0.00868,65.6,62.3,20,894,0,97.2,4.31,0.00,0.00
15min,AgWx,beryljct,423,02SEP2020:14:30:00,85.1,13.39,81.8,82.1,81.8,82.4,80.9,27,35,22,1.207,44.7,51.2,39.0,7.717,5.7,74,20,11.3,0.00686,0.00829,66.2,62.4,20,882,0,99.2,4.31,0.00,0.00
15min,AgWx,beryljct,423,02SEP2020:14:45:00,86.3,13.36,82.9,82.9,82.5,83.2,82.0,25,32,18,0.915,43.1,49.7,34.7,5.875,6.1,71,30,12.2,0.00687,0.00839,66.8,62.5,20,868,0,97.5,4.31,0.00,0.00
15min,AgWx,beryljct,423,02SEP2020:15:00:00,87.2,13.33,82.9,82.8,82.7,82.9,82.4,26,32,20,0.990,44.3,50.3,37.8,8.99,7.7,102,14,12.1,0.00693,0.00867,67.4,62.6,20,848,0,96.7,4.31,0.00,0.00
15min,AgWx,beryljct,423,02SEP2020:15:15:00,87.6,13.33,82.7,83.4,82.9,83.4,82.4,27,33,21,1.045,45.3,51.0,39.0,8.33,7.8,87,17,14.2,0.00679,0.00853,68.0,62.8,20,825,0,94.6,4.31,0.00,0.00
15min,AgWx,beryljct,423,02SEP2020:15:30:00,88.0,13.32,82.3,83.5,83.1,83.5,82.4,27,34,20,0.914,45.6,51.3,37.8,5.59,8.3,81,14,11.2,0.00669,0.00849,68.5,62.9,20,800,0,93.3,4.31,0.00,0.00
15min,AgWx,beryljct,423,02SEP2020:15:45:00,88.5,13.3,84.0,83.5,83.5,84.0,82.9,27,38,19,0.977,46.1,54.7,37.6,9.12,6.8,99,14,11.1,0.00631,0.00788,69.1,63.1,20,771,0,93.9,4.31,0.00,0.00
15min,AgWx,beryljct,423,02SEP2020:16:00:00,88.7,13.29,83.1,83.7,83.6,84.3,82.9,27,33,19,1.266,45.7,51.4,37.5,5.283,7.5,99,13,10.7,0.00611,0.00779,69.5,63.2,20,725,0,92.3,4.30,0.00,0.00
15min,AgWx,beryljct,423,02SEP2020:16:15:00,89.1,13.24,84.0,84.1,84.0,84.6,83.4,26,36,19,0.958,45.7,54.1,37.3,8.35,7.3,81,24,13.4,0.00581,0.00743,70.0,63.4,20,685,0,91.9,4.31,0.00,0.00
15min,AgWx,beryljct,423,02SEP2020:16:30:00,89.5,13.25,85.1,84.5,84.2,84.8,83.6,24,29,18,0.823,43.8,48.7,37.2,6.708,7.2,88,17,9.4,0.00569,0.00733,70.4,63.5,20,665,0,91.0,4.30,0.00,0.00
15min,AgWx,beryljct,423,02SEP2020:16:45:00,89.8,13.28,85.3,84.6,84.3,84.8,83.9,27,35,22,0.978,47.0,53.8,40.9,7.366,5.7,101,16,8.8,0.00512,0.00644,70.7,63.7,20,624,0,92.2,4.31,0.00,0.00
15min,AgWx,beryljct,423,02SEP2020:17:00:00,90.2,13.23,84.1,84.6,84.7,85.5,84.2,27,36,18,1.027,47.3,54.5,37.0,6.072,5.0,92,15,7.3,0.00461,0.00580,71.1,63.9,20,567,0,92.6,4.30,0.00,0.00
15min,AgWx,beryljct,423,02SEP2020:17:15:00,90.4,13.23,84.4,83.8,84.0,84.6,83.6,29,37,23,1.167,48.5,54.6,42.2,4.604,5.5,97,10,9.1,0.00443,0.00566,71.3,64.0,20,536,0,91.8,4.30,0.00,0.00
15min,AgWx,beryljct,423,02SEP2020:17:30:00,90.3,13.26,84.1,84.4,84.4,85.4,83.3,29,38,17,1.447,48.3,56.2,35.9,3.113,4.4,95,15,9.0,0.00390,0.00493,71.6,64.2,20,488,0,92.2,4.31,0.00,0.00
15min,AgWx,beryljct,423,02SEP2020:17:45:00,90.1,13.27,86.5,84.9,84.3,85.5,83.2,26,36,18,0.724,45.6,54.4,36.3,5.459,6.9,74,27,10.7,0.00401,0.00546,71.8,64.4,20,440,0,90.7,4.31,0.00,0.00
15min,AgWx,beryljct,423,02SEP2020:18:00:00,89.6,13.24,86.5,83.8,83.6,85.3,82.8,28,35,18,0.867,47.3,52.3,37.2,7.168,5.2,75,18,7.8,0.00330,0.00441,71.9,64.5,20,390,0,89.5,4.31,0.00,0.00
15min,AgWx,beryljct,423,02SEP2020:18:15:00,89.0,13.25,82.9,83.8,83.3,85.4,82.3,27,34,17,0.971,45.8,51.8,36.1,4.582,5.5,68,16,7.4,0.00299,0.00414,72.0,64.7,19,340,0,88.5,4.31,0.00,0.00
15min,AgWx,beryljct,423,02SEP2020:18:30:00,88.3,13.26,85.2,84.5,83.7,85.0,82.2,24,31,18,0.729,43.1,49.2,36.2,6.774,5.5,56,24,8.0,0.00264,0.00381,72.0,64.9,19,288,0,87.9,4.31,0.00,0.00
15min,AgWx,beryljct,423,02SEP2020:18:45:00,87.6,13.31,82.1,82.5,82.8,85.2,81.2,28,37,17,1.192,45.9,52.7,35.3,3.376,4.3,68,16,7.7,0.00198,0.00287,71.9,65.0,19,238,0,85.8,4.31,0.00,0.00
15min,AgWx,beryljct,423,02SEP2020:19:00:00,86.7,13.25,80.6,81.4,81.9,82.7,81.1,27,33,23,0.954,44.9,50.1,40.7,7.234,5.4,64,10,7.8,0.00183,0.00288,71.8,65.2,19,188,0,83.0,4.31,0.00,0.00
15min,AgWx,beryljct,423,02SEP2020:19:15:00,85.0,13.13,77.8,79.0,79.8,81.4,78.7,29,32,25,1.036,45.0,46.9,42.0,4.582,5.8,71,7.1,8.3,0.00110,0.00155,71.6,65.3,20,142,0,80.0,4.31,0.01,0.00
15min,AgWx,beryljct,423,02SEP2020:19:30:00,83.2,13.09,77.4,77.4,78.2,79.3,77.4,30,33,27,0.951,44.2,46.6,41.2,6.226,6.0,73,6.6,8.1,0.00096,0.00136,71.4,65.5,19,99,0,77.9,4.31,0.00,0.00
15min,AgWx,beryljct,423,02SEP2020:19:45:00,81.0,13.05,76.1,76.3,76.4,77.5,74.8,30,34,29,0.905,43.1,45.1,41.6,4.406,5.0,74,5.5,6.8,0.00070,0.00102,71.1,65.6,19,60,0,75.2,4.31,0.00,0.00
15min,AgWx,beryljct,423,02SEP2020:20:00:00,78.7,13.02,75.5,75.8,75.8,76.3,75.4,29,31,27,0.859,41.3,43.2,39.8,3.288,4.0,75,4.5,5.7,0.00041,0.00065,70.8,65.7,19,10,0,72.9,4.32,0.00,0.00
15min,AgWx,beryljct,423,02SEP2020:20:15:00,76.6,13.01,72.9,72.4,74.8,75.9,72.0,29,34,27,0.876,40.6,42.6,39.5,2.806,4.0,71,7.0,5.4,0.00037,0.00059,70.4,65.9,19,3,0,71.4,4.32,0.00,0.00
15min,AgWx,beryljct,423,02SEP2020:20:30:00,74.4,12.98,71.9,73.0,72.6,73.0,72.0,31,33,29,0.826,40.4,41.7,39.0,4.45,3.7,71,5.6,5.8,0.00029,0.00048,70.1,66.0,19,0,0,68.6,4.32,0.00,0.00
15min,AgWx,beryljct,423,02SEP2020:20:45:00,72.9,13,72.6,72.7,72.6,73.2,71.6,30,32,28,0.778,39.0,39.9,38.0,1.754,3.1,69,4.3,4.9,0.00020,0.00035,69.7,66.1,19,0,0,68.2,4.32,0.00,0.00
15min,AgWx,beryljct,423,02SEP2020:21:00:00,71.4,12.98,74.0,73.4,72.7,73.4,72.2,28,29,26,0.720,37.4,38.2,36.1,0,0.6,64,2.0,2.2,-0.00034,-0.00050,69.3,66.2,19,0,0,65.4,4.32,0.00,0.00
15min,AgWx,beryljct,423,02SEP2020:21:15:00,70.3,12.98,73.8,73.4,73.4,73.8,72.1,26,30,25,0.722,36.3,39.1,35.6,0.965,0.3,355,29,1.1,-0.00043,-0.00066,69.0,66.2,20,0,0,64.5,4.32,0.00,0.00
15min,AgWx,beryljct,423,02SEP2020:21:30:00,69.7,12.97,70.5,72.5,73.2,74.5,70.7,27,38,24,0.769,37.1,44.6,34.7,0,1.1,297,10,2.1,-0.00020,-0.00026,68.6,66.3,19,0,0,66.3,4.32,0.00,0.00
15min,AgWx,beryljct,423,02SEP2020:21:45:00,68.8,12.96,74.9,74.1,73.5,74.4,72.3,26,30,23,0.694,36.0,39.3,34.5,1.644,0.8,281,16,2.3,-0.00029,-0.00041,68.3,66.3,19,0,0,66.3,4.32,0.00,0.00
15min,AgWx,beryljct,423,02SEP2020:22:00:00,67.8,12.96,71.3,70.8,72.4,75.0,69.4,28,38,22,0.831,37.4,43.8,33.9,2.302,1.7,255,0.1,2.6,-0.00007,-0.00005,67.9,66.4,19,0,0,67.2,4.33,0.00,0.00
15min,AgWx,beryljct,423,02SEP2020:22:15:00,66.5,12.94,66.2,67.1,68.9,72.3,62.5,37,58,27,0.880,40.9,47.7,36.3,2.411,1.8,262,9.0,3.1,-0.00007,-0.00006,67.6,66.4,19,0,0,64.0,4.33,0.00,0.00
15min,AgWx,beryljct,423,02SEP2020:22:30:00,65.7,12.93,73.0,72.7,68.9,72.7,65.8,33,44,25,0.680,38.6,43.3,33.9,0.833,1.5,312,32,3.7,-0.00012,-0.00013,67.3,66.4,19,0,0,62.8,4.33,0.00,0.00
15min,AgWx,beryljct,423,02SEP2020:22:45:00,65.5,12.93,70.5,70.3,71.5,73.0,69.7,26,30,24,0.679,35.1,37.2,34.3,0.504,1.3,351,11,2.5,-0.00017,-0.00021,67.0,66.5,19,0,0,64.4,4.33,0.00,0.00
15min,AgWx,beryljct,423,02SEP2020:23:00:00,65.1,12.93,63.5,67.2,68.9,71.5,66.0,32,42,25,0.913,37.8,42.6,33.6,1.798,1.1,316,17,2.0,-0.00021,-0.00029,66.7,66.5,19,0,0,62.1,4.33,0.00,0.00
15min,AgWx,beryljct,423,02SEP2020:23:15:00,64.1,12.93,64.2,63.4,63.8,67.0,61.2,39,48,32,0.631,38.6,43.5,32.8,3.244,3.0,320,13,4.1,0.00010,0.00020,66.4,66.5,20,0,0,59.2,4.33,0.00,0.00
15min,AgWx,beryljct,423,02SEP2020:23:30:00,63.3,12.93,65.0,65.5,65.2,66.6,63.6,30,34,27,0.723,32.8,36.5,30.6,5.239,4.0,313,16,5.2,0.00028,0.00045,66.1,66.5,19,0,0,59.8,4.34,0.00,0.00
15min,AgWx,beryljct,423,02SEP2020:23:45:00,62.7,12.91,60.8,64.1,64.4,66.4,60.9,34,44,28,0.683,34.9,40.1,31.8,4.077,4.6,307,6.0,5.6,0.00034,0.00051,65.8,66.5,20,0,0,60.2,4.34,0.00,0.00
15min,AgWx,beryljct,423,03SEP2020:00:00:00,62.4,12.9,61.0,63.0,65.2,67.5,62.3,31,37,27,0.709,33.8,37.4,32.3,4.713,5.0,316,3.9,6.1,0.00040,0.00060,65.5,66.4,19,0,0,60.7,4.33,0.00,0.00
15min,AgWx,beryljct,423,03SEP2020:00:15:00,62.0,12.91,64.6,64.6,62.2,64.7,59.8,35,44,29,0.613,34.3,38.1,31.5,4.954,5.2,304,3.8,6.2,0.00036,0.00053,65.2,66.4,19,0,0,57.9,4.34,0.00,0.00
15min,AgWx,beryljct,423,03SEP2020:00:30:00,61.7,12.9,65.7,64.0,63.6,65.5,61.9,30,32,27,0.618,31.8,33.1,30.4,3.902,3.6,306,6.2,5.0,0.00022,0.00037,65.0,66.4,19,0,0,58.2,4.33,0.00,0.00
15min,AgWx,bigpiney,439,02SEP2020:00:00:00,49.0,12.7,50.5,51.2,52.8,53.6,51.2,54,56,52,0.720,36.6,37.2,36.1,4.56,5.9,357,14,7.3,0.00018,0.00027,51.0,50.7,46,0,0,0.0,8.21,0.00,0.00
15min,AgWx,bigpiney,439,02SEP2020:00:15:00,49.1,12.69,50.8,50.4,51.4,51.7,50.4,57,58,56,0.721,36.6,36.8,36.1,5.437,5.5,342,4.5,6.4,0.00014,0.00020,51.0,50.7,46,0,0,0.0,8.21,0.00,0.00
15min,AgWx,bigpiney,439,02SEP2020:00:30:00,49.2,12.69,50.0,49.4,49.5,50.7,48.9,61,64,58,0.767,36.4,37.7,35.4,7.432,5.7,0.2,13,8.4,0.00011,0.00017,51.0,50.7,46,0,0,0.0,8.21,0.00,0.00
15min,AgWx,bigpiney,439,02SEP2020:00:45:00,49.2,12.67,46.9,47.0,47.9,49.7,46.5,66,68,63,0.738,36.9,37.9,36.3,6.357,6.6,8.6,19,9.1,0.00011,0.00016,50.9,50.7,46,0,0,0.0,8.21,0.00,0.00
15min,AgWx,bigpiney,439,02SEP2020:01:00:00,49.1,12.66,46.0,46.3,46.6,47.2,46.0,68,69,67,0.730,36.6,37.0,36.3,1.578,5.4,349,13,8.8,0.00005,0.00008,50.9,50.7,46,0,0,0.0,8.21,0.00,0.00
15min,AgWx,bigpiney,439,02SEP2020:01:15:00,48.5,12.66,45.9,44.7,42.8,46.3,39.0,74,80,67,0.750,34.9,37.2,32.3,2.696,3.7,184,34,7.7,-0.00005,-0.00004,50.8,50.7,46,0,0,0.0,8.21,0.00,0.00
15min,AgWx,bigpiney,439,02SEP2020:01:30:00,47.7,12.65,49.1,49.0,47.3,49.6,44.2,67,74,63,0.754,37.0,37.8,34.9,1.688,2.5,132,58,4.7,-0.00010,-0.00011,50.8,50.8,46,0,0,0.0,8.21,0.00,0.00
15min,AgWx,bigpiney,439,02SEP2020:01:45:00,47.4,12.65,48.8,48.3,49.1,49.6,48.1,64,66,63,0.753,37.5,37.8,36.9,3.003,3.3,335,19,6.0,-0.00003,-0.00002,50.8,50.8,46,0,0,0.0,8.21,0.00,0.00
15min,AgWx,bigpiney,439,02SEP2020:02:00:00,47.4,12.64,46.1,46.8,48.4,49.3,46.8,65,68,64,0.740,37.3,37.7,36.4,6.072,4.7,347,20,6.5,0.00003,0.00007,50.8,50.8,46,0,0,0.0,8.21,0.00,0.00
15min,AgWx,bigpiney,439,02SEP2020:02:15:00,47.2,12.64,46.3,46.0,45.5,46.7,44.6,71,72,68,0.734,36.5,36.7,36.1,6.204,6.4,347,5.2,7.8,0.00006,0.00009,50.7,50.7,46,0,0,0.0,8.21,0.00,0.00
15min,AgWx,bigpiney,439,02SEP2020:02:30:00,47.0,12.63,45.5,44.8,45.5,46.4,43.9,70,74,69,0.718,36.4,36.8,35.2,3.595,3.4,358,84,6.0,-0.00005,-0.00005,50.7,50.7,46,0,0,0.0,8.21,0.00,0.00
15min,AgWx,bigpiney,439,02SEP2020:02:45:00,46.6,12.62,46.8,47.0,46.2,47.2,44.9,69,72,67,0.733,36.5,37.0,35.7,0,0.8,189,20,3.1,-0.00023,-0.00034,50.7,50.8,46,0,0,0.0,8.21,0.00,0.00
15min,AgWx,bigpiney,439,02SEP2020:03:00:00,46.2,12.62,45.8,45.5,45.9,47.1,45.0,68,70,67,0.716,36.1,36.6,35.6,3.508,2.7,271,18,4.2,-0.00009,-0.00010,50.6,50.7,46,0,0,0.0,8.21,0.00,0.00
15min,AgWx,bigpiney,439,02SEP2020:03:15:00,45.8,12.61,47.9,48.3,46.2,48.3,45.2,68,70,64,0.736,36.2,36.7,35.7,1.732,2.0,303,21,3.4,-0.00013,-0.00016,50.6,50.7,46,0,0,0.0,8.21,0.00,0.00
15min,AgWx,bigpiney,439,02SEP2020:03:30:00,45.4,12.6,49.1,49.3,49.1,49.4,48.2,62,64,62,0.735,36.8,37.1,36.6,3.529,2.5,332,9.5,3.9,-0.00008,-0.00009,50.5,50.8,46,0,0,0.0,8.21,0.00,0.00
15min,AgWx,bigpiney,439,02SEP2020:03:45:00,45.4,12.59,49.4,49.4,49.1,49.5,48.7,62,63,61,0.733,36.6,36.8,36.4,3.968,4.1,7.2,7.6,5.1,0.00003,0.00006,50.5,50.7,46,0,0,0.0,8.21,0.00,0.00
15min,AgWx,bigpiney,439,02SEP2020:04:00:00,45.8,12.59,49.1,49.2,49.5,49.9,49.1,61,62,60,0.732,36.6,36.8,36.5,0,2.6,21,9.0,4.0,-0.00007,-0.00007,50.5,50.7,46,0,0,0.0,8.21,0.00,0.00
15min,AgWx,bigpiney,439,02SEP2020:04:15:00,45.8,12.56,35.0,37.2,45.8,49.2,37.2,65,75,60,0.563,34.8,36.8,30.0,4.099,1.8,211,39,5.5,-0.00014,-0.00017,50.4,50.7,46,0,0,0.0,8.21,0.00,0.00
15min,AgWx,bigpiney,439,02SEP2020:04:30:00,44.8,12.56,35.5,35.9,38.3,42.7,35.8,77,84,68,0.572,31.7,35.7,29.6,4.954,4.8,230,4.9,5.8,-0.00003,-0.00002,50.4,50.7,46,0,0,0.0,8.21,0.00,0.00
15min,AgWx,bigpiney,439,02SEP2020:04:45:00,43.2,12.56,35.7,35.5,35.5,35.9,35.2,83,85,80,0.597,30.9,31.4,29.8,4.691,5.4,227,4.5,6.2,-0.00004,-0.00004,50.3,50.7,46,0,0,0.0,8.21,0.00,0.00
15min,AgWx,bigpiney,439,02SEP2020:05:00:00,41.8,12.55,36.9,37.2,35.7,37.3,35.0,84,86,81,0.611,31.3,32.7,30.6,5.612,4.3,230,8.0,5.7,-0.00007,-0.00008,50.2,50.7,46,0,0,0.0,8.21,0.00,0.00
15min,AgWx,bigpiney,439,02SEP2020:05:15:00,40.8,12.53,36.9,36.4,36.5,37.4,35.7,81,83,79,0.585,31.3,32.2,30.6,5.152,4.2,235,11,7.0,-0.00006,-0.00007,50.2,50.6,46,0,0,0.0,8.21,0.00,0.00
15min,AgWx,bigpiney,439,02SEP2020:05:30:00,40.2,12.52,34.6,34.5,35.9,36.8,34.4,81,83,79,0.563,30.7,32.0,29.5,5.59,5.0,233,8.4,6.3,-0.00004,-0.00004,50.2,50.7,46,0,0,0.0,8.21,0.00,0.00
15min,AgWx,bigpiney,439,02SEP2020:05:45:00,39.4,12.51,34.2,34.1,34.1,34.5,33.8,85,86,83,0.562,29.9,30.4,29.6,4.976,4.9,220,14,6.8,-0.00006,-0.00006,50.1,50.7,46,0,0,0.0,8.21,0.00,0.00
15min,AgWx,bigpiney,439,02SEP2020:06:00:00,38.8,12.49,35.6,34.7,34.4,35.1,33.9,85,86,83,0.572,30.3,30.8,29.8,4.911,4.9,232,6.1,6.1,-0.00006,-0.00006,50.0,50.7,46,0,0,0.0,8.21,0.00,0.00
15min,AgWx,bigpiney,439,02SEP2020:06:15:00,38.4,12.48,36.0,35.7,35.0,36.1,34.3,84,85,81,0.585,30.5,32.0,29.7,5.7,5.5,236,7.4,7.4,-0.00004,-0.00004,50.0,50.6,46,0,0,0.0,8.21,0.00,0.00
15min,AgWx,bigpiney,439,02SEP2020:06:30:00,38.1,12.47,36.2,35.4,35.4,35.7,35.1,83,85,82,0.590,30.8,31.2,30.6,4.209,5.4,226,9.1,7.0,-0.00004,-0.00004,50.0,50.6,46,0,0,0.0,8.21,0.00,0.00
15min,AgWx,bigpiney,439,02SEP2020:06:45:00,37.9,12.46,31.8,32.7,34.3,35.7,32.7,84,87,81,0.526,30.0,31.4,28.3,4.691,5.1,220,7.9,6.2,-0.00005,-0.00005,49.9,50.6,46,2,0,0.0,8.21,0.00,0.00
15min,AgWx,bigpiney,439,02SEP2020:07:00:00,37.6,12.47,33.1,33.0,33.0,33.8,32.0,86,87,84,0.546,29.2,30.1,27.8,5.152,4.7,221,9.3,6.2,-0.00005,-0.00005,49.8,50.6,46,14,0,0.0,8.21,0.00,0.00